| time (UTC) | temp F | wind direction | speed knots | gust knots | rain 1hr in | rain 24hr in | rain mn in | humidity % | barometer mb |
| 20260506002204 | 81 | 266 | 0.9 | 5.2 | 0.00 | 0.00 | 0.00 | 63 | 1004.9 |
| 20260506001704 | 81 | 277 | 0.9 | 4.3 | 0.00 | 0.00 | 0.00 | 63 | 1004.9 |
| 20260506001204 | 82 | 277 | 1.7 | 5.2 | 0.00 | 0.00 | 0.00 | 62 | 1004.8 |
| 20260506000704 | 82 | 275 | 1.7 | 6.1 | 0.00 | 0.00 | 0.00 | 62 | 1004.8 |
| 20260506000205 | 82 | 15 | 1.7 | 7.0 | 0.00 | 0.00 | 0.00 | 61 | 1004.5 |
| 20260505235704 | 83 | 276 | 1.7 | 7.0 | 0.00 | 0.00 | 0.00 | 60 | 1004.2 |
| 20260505235204 | 84 | 291 | 2.6 | 4.3 | 0.00 | 0.00 | 0.00 | 60 | 1004.1 |
| 20260505234704 | 85 | 35 | 1.7 | 5.2 | 0.00 | 0.00 | 0.00 | 57 | 1004.1 |
| 20260505234203 | 86 | 203 | 0.9 | 2.6 | 0.00 | 0.00 | 0.00 | 55 | 1004.1 |
| 20260505233704 | 86 | 180 | 0.9 | 4.3 | 0.00 | 0.00 | 0.00 | 54 | 1004.0 |
| 20260505233204 | 87 | 338 | 0.9 | 5.2 | 0.00 | 0.00 | 0.00 | 53 | 1004.0 |
| 20260505232704 | 88 | 322 | 1.7 | 5.2 | 0.00 | 0.00 | 0.00 | 53 | 1004.0 |
| 20260505232204 | 89 | 329 | 0.9 | 4.3 | 0.00 | 0.00 | 0.00 | 53 | 1003.8 |
| 20260505231703 | 89 | 38 | 0.0 | 0.9 | 0.00 | 0.00 | 0.00 | 61 | 1003.5 |
| 20260505231204 | 90 | 277 | 0.0 | 0.9 | 0.00 | 0.00 | 0.00 | 57 | 1003.5 |
| 20260505230703 | 90 | 203 | 0.0 | 2.6 | 0.00 | 0.00 | 0.00 | 56 | 1003.3 |
| 20260505225705 | 90 | 249 | 0.0 | 2.6 | 0.00 | 0.00 | 0.00 | 56 | 1003.2 |
| 20260505225204 | 90 | 260 | 0.0 | 0.9 | 0.00 | 0.00 | 0.00 | 56 | 1003.3 |
| 20260505224703 | 90 | 79 | 0.0 | 5.2 | 0.00 | 0.00 | 0.00 | 57 | 1003.3 |
| 20260505224204 | 90 | 86 | 0.9 | 2.6 | 0.00 | 0.00 | 0.00 | 56 | 1003.3 |
| 20260505223703 | 91 | 105 | 0.0 | 2.6 | 0.00 | 0.00 | 0.00 | 55 | 1003.3 |
| 20260505223204 | 91 | 250 | 0.0 | 1.7 | 0.00 | 0.00 | 0.00 | 56 | 1003.1 |
| 20260505222703 | 91 | 271 | 0.0 | 1.7 | 0.00 | 0.00 | 0.00 | 55 | 1003.0 |
| 20260505222204 | 91 | 165 | 0.0 | 0.9 | 0.00 | 0.00 | 0.00 | 56 | 1002.9 |
| 20260505221704 | 91 | 268 | 0.0 | 1.7 | 0.00 | 0.00 | 0.00 | 56 | 1003.0 |
| 20260505221203 | 91 | 153 | 0.9 | 6.1 | 0.00 | 0.00 | 0.00 | 56 | 1003.1 |
| 20260505220703 | 91 | 86 | 1.7 | 7.8 | 0.00 | 0.00 | 0.00 | 57 | 1003.0 |
| 20260505215704 | 91 | 99 | 1.7 | 4.3 | 0.00 | 0.00 | 0.00 | 57 | 1003.1 |
| 20260505215203 | 91 | 149 | 0.9 | 4.3 | 0.00 | 0.00 | 0.00 | 56 | 1003.1 |
| 20260505214703 | 92 | 109 | 0.0 | 1.7 | 0.00 | 0.00 | 0.00 | 55 | 1003.1 |
| 20260505214203 | 93 | 285 | 1.7 | 5.2 | 0.00 | 0.00 | 0.00 | 55 | 1003.2 |
| 20260505213704 | 92 | 128 | 0.9 | 2.6 | 0.00 | 0.00 | 0.00 | 55 | 1003.4 |
| 20260505213204 | 92 | 216 | 1.7 | 6.1 | 0.00 | 0.00 | 0.00 | 54 | 1003.4 |
| 20260505212704 | 92 | 140 | 0.9 | 4.3 | 0.00 | 0.00 | 0.00 | 57 | 1003.3 |
| 20260505212203 | 92 | 301 | 0.9 | 2.6 | 0.00 | 0.00 | 0.00 | 55 | 1003.4 |
| 20260505211704 | 92 | 327 | 0.9 | 4.3 | 0.00 | 0.00 | 0.00 | 58 | 1003.5 |
| 20260505211204 | 92 | 162 | 1.7 | 4.3 | 0.00 | 0.00 | 0.00 | 56 | 1003.7 |
| 20260505210704 | 92 | 157 | 1.7 | 4.3 | 0.00 | 0.00 | 0.00 | 56 | 1003.5 |
| 20260505205203 | 91 | 305 | 0.9 | 2.6 | 0.00 | 0.00 | 0.00 | 57 | 1003.7 |
| 20260505204704 | 91 | 280 | 0.9 | 2.6 | 0.00 | 0.00 | 0.00 | 56 | 1003.8 |
| 20260505204204 | 91 | 122 | 0.9 | 2.6 | 0.00 | 0.00 | 0.00 | 58 | 1003.8 |
| 20260505203703 | 91 | 251 | 0.0 | 1.7 | 0.00 | 0.00 | 0.00 | 58 | 1004.0 |
| 20260505203204 | 90 | 162 | 0.9 | 4.3 | 0.00 | 0.00 | 0.00 | 59 | 1004.0 |
| 20260505202704 | 90 | 257 | 2.6 | 7.8 | 0.00 | 0.00 | 0.00 | 58 | 1004.0 |
| 20260505202203 | 90 | 272 | 1.7 | 5.2 | 0.00 | 0.00 | 0.00 | 59 | 1004.0 |
| 20260505201704 | 90 | 284 | 0.0 | 4.3 | 0.00 | 0.00 | 0.00 | 58 | 1004.0 |
| 20260505200204 | 90 | 149 | 1.7 | 6.1 | 0.00 | 0.00 | 0.00 | 58 | 1004.1 |
| 20260505195704 | 90 | 124 | 0.9 | 4.3 | 0.00 | 0.00 | 0.00 | 60 | 1004.1 |
| 20260505195205 | 90 | 122 | 1.7 | 5.2 | 0.00 | 0.00 | 0.00 | 60 | 1004.1 |
| 20260505194204 | 89 | 255 | 1.7 | 5.2 | 0.00 | 0.00 | 0.00 | 61 | 1004.2 |
| 20260505193704 | 89 | 149 | 1.7 | 4.3 | 0.00 | 0.00 | 0.00 | 61 | 1004.3 |
| 20260505193204 | 88 | 173 | 2.6 | 5.2 | 0.00 | 0.00 | 0.00 | 62 | 1004.2 |
| 20260505192705 | 89 | 308 | 1.7 | 4.3 | 0.00 | 0.00 | 0.00 | 61 | 1004.2 |
| 20260505191704 | 88 | 214 | 1.7 | 7.8 | 0.00 | 0.00 | 0.00 | 63 | 1004.2 |
| 20260505191204 | 88 | 137 | 1.7 | 4.3 | 0.00 | 0.00 | 0.00 | 64 | 1004.3 |
| 20260505190704 | 87 | 284 | 0.9 | 2.6 | 0.00 | 0.00 | 0.00 | 65 | 1004.4 |
| 20260505190204 | 87 | 103 | 0.9 | 5.2 | 0.00 | 0.00 | 0.00 | 65 | 1004.4 |
| 20260505185704 | 87 | 145 | 2.6 | 7.8 | 0.00 | 0.00 | 0.00 | 64 | 1004.3 |
| 20260505184705 | 86 | 125 | 2.6 | 7.0 | 0.00 | 0.00 | 0.00 | 64 | 1004.4 |
| 20260505184204 | 87 | 109 | 1.7 | 5.2 | 0.00 | 0.00 | 0.00 | 64 | 1004.4 |
| 20260505183704 | 86 | 282 | 0.9 | 2.6 | 0.00 | 0.00 | 0.00 | 65 | 1004.6 |
| 20260505183204 | 86 | 336 | 1.7 | 2.6 | 0.00 | 0.00 | 0.00 | 65 | 1004.5 |
| 20260505182704 | 85 | 251 | 2.6 | 7.8 | 0.00 | 0.00 | 0.00 | 65 | 1004.5 |
| 20260505182204 | 85 | 197 | 3.5 | 7.0 | 0.00 | 0.00 | 0.00 | 65 | 1004.5 |
| 20260505181204 | 86 | 290 | 0.9 | 2.6 | 0.00 | 0.00 | 0.00 | 65 | 1004.8 |
| 20260505180705 | 85 | 138 | 1.7 | 5.2 | 0.00 | 0.00 | 0.00 | 66 | 1004.7 |
| 20260505180204 | 85 | 113 | 2.6 | 5.2 | 0.00 | 0.00 | 0.00 | 65 | 1004.8 |
| 20260505175704 | 85 | 147 | 1.7 | 4.3 | 0.00 | 0.00 | 0.00 | 65 | 1004.7 |
| 20260505175204 | 85 | 240 | 1.7 | 5.2 | 0.00 | 0.00 | 0.00 | 65 | 1004.7 |
| 20260505174204 | 85 | 135 | 1.7 | 6.1 | 0.00 | 0.00 | 0.00 | 65 | 1004.9 |
| 20260505173704 | 84 | 165 | 1.7 | 5.2 | 0.00 | 0.00 | 0.00 | 66 | 1004.9 |
| 20260505173204 | 84 | 60 | 0.9 | 7.0 | 0.00 | 0.00 | 0.00 | 66 | 1004.9 |
| 20260505172704 | 84 | 106 | 1.7 | 5.2 | 0.00 | 0.00 | 0.00 | 66 | 1004.9 |
| 20260505172205 | 84 | 79 | 0.9 | 5.2 | 0.00 | 0.00 | 0.00 | 67 | 1005.0 |
| 20260505171705 | 84 | 153 | 0.9 | 4.3 | 0.00 | 0.00 | 0.00 | 67 | 1005.0 |
| 20260505171204 | 84 | 110 | 2.6 | 10.4 | 0.00 | 0.00 | 0.00 | 67 | 1005.0 |
| 20260505165704 | 83 | 127 | 0.9 | 5.2 | 0.00 | 0.00 | 0.00 | 67 | 1005.1 |
| 20260505164705 | 83 | 118 | 1.7 | 7.0 | 0.00 | 0.00 | 0.00 | 67 | 1004.8 |
| 20260505164204 | 83 | 65 | 1.7 | 7.0 | 0.00 | 0.00 | 0.00 | 67 | 1004.8 |
| 20260505163704 | 83 | 173 | 0.9 | 4.3 | 0.00 | 0.00 | 0.00 | 67 | 1004.8 |
| 20260505163204 | 83 | 241 | 1.7 | 8.7 | 0.00 | 0.00 | 0.00 | 66 | 1004.8 |
| 20260505162704 | 82 | 260 | 0.9 | 10.4 | 0.00 | 0.00 | 0.00 | 68 | 1004.7 |
| 20260505162205 | 82 | 138 | 1.7 | 11.3 | 0.00 | 0.00 | 0.00 | 68 | 1004.7 |
| 20260505161205 | 82 | 142 | 1.7 | 4.3 | 0.00 | 0.00 | 0.00 | 68 | 1004.7 |
| 20260505160204 | 81 | 143 | 0.9 | 7.8 | 0.00 | 0.00 | 0.00 | 69 | 1004.6 |
| 20260505153204 | 80 | 109 | 1.7 | 7.0 | 0.00 | 0.00 | 0.00 | 69 | 1004.6 |
| 20260505152705 | 80 | 141 | 3.5 | 10.4 | 0.00 | 0.00 | 0.00 | 69 | 1004.6 |
| 20260505151704 | 79 | 193 | 1.7 | 5.2 | 0.00 | 0.00 | 0.00 | 70 | 1004.6 |
| 20260505151204 | 79 | 217 | 1.7 | 5.2 | 0.00 | 0.00 | 0.00 | 70 | 1004.7 |
| 20260505150704 | 78 | 81 | 1.7 | 6.1 | 0.00 | 0.00 | 0.00 | 71 | 1004.7 |
| 20260505150204 | 78 | 165 | 1.7 | 4.3 | 0.00 | 0.00 | 0.00 | 71 | 1004.7 |
| 20260505140203 | 73 | 87 | 0.9 | 6.1 | 0.00 | 0.00 | 0.00 | 77 | 1004.4 |
| 20260505124704 | 72 | 146 | 0.9 | 6.1 | 0.00 | 0.00 | 0.00 | 79 | 1004.4 |
| 20260505123704 | 71 | 121 | 1.7 | 6.1 | 0.00 | 0.00 | 0.00 | 79 | 1004.3 |
| 20260505123204 | 71 | 127 | 0.9 | 2.6 | 0.00 | 0.00 | 0.00 | 79 | 1004.1 |
| 20260505122704 | 71 | 94 | 1.7 | 5.2 | 0.00 | 0.00 | 0.00 | 79 | 1004.0 |
| 20260505122204 | 71 | 117 | 1.7 | 10.4 | 0.00 | 0.00 | 0.00 | 79 | 1004.0 |
| 20260505121204 | 71 | 134 | 1.7 | 8.7 | 0.00 | 0.00 | 0.00 | 79 | 1004.0 |
| 20260505120704 | 71 | 114 | 2.6 | 6.1 | 0.00 | 0.00 | 0.00 | 79 | 1004.0 |
| 20260505120204 | 71 | 122 | 0.9 | 5.2 | 0.00 | 0.00 | 0.00 | 79 | 1003.9 |
| 20260505115704 | 71 | 127 | 1.7 | 4.3 | 0.00 | 0.00 | 0.00 | 79 | 1003.9 |
| 20260505115204 | 71 | 222 | 2.6 | 6.1 | 0.00 | 0.00 | 0.00 | 79 | 1003.9 |
| 20260505114704 | 71 | 101 | 1.7 | 6.1 | 0.00 | 0.00 | 0.00 | 79 | 1003.9 |
| 20260505113704 | 71 | 246 | 0.9 | 6.1 | 0.00 | 0.00 | 0.00 | 79 | 1003.9 |
| 20260505113204 | 71 | 154 | 0.9 | 4.3 | 0.00 | 0.00 | 0.00 | 79 | 1003.7 |
| 20260505112704 | 71 | 138 | 1.7 | 6.1 | 0.00 | 0.00 | 0.00 | 79 | 1003.6 |
| 20260505112204 | 71 | 176 | 1.7 | 2.6 | 0.00 | 0.00 | 0.00 | 79 | 1003.7 |
| 20260505111703 | 71 | 117 | 0.9 | 4.3 | 0.00 | 0.00 | 0.00 | 79 | 1003.7 |
| 20260505111203 | 71 | 152 | 2.6 | 5.2 | 0.00 | 0.00 | 0.00 | 79 | 1003.7 |
| 20260505110704 | 71 | 172 | 2.6 | 10.4 | 0.00 | 0.00 | 0.00 | 79 | 1003.6 |
| 20260505102204 | 71 | 127 | 2.6 | 6.1 | 0.00 | 0.00 | 0.00 | 79 | 1003.7 |
| 20260505101704 | 71 | 193 | 0.9 | 6.1 | 0.00 | 0.00 | 0.00 | 78 | 1003.7 |
| 20260505101204 | 71 | 136 | 1.7 | 5.2 | 0.00 | 0.00 | 0.00 | 78 | 1003.7 |
| 20260505100704 | 71 | 123 | 2.6 | 7.8 | 0.00 | 0.00 | 0.00 | 78 | 1003.8 |
| 20260505100204 | 71 | 137 | 2.6 | 5.2 | 0.00 | 0.00 | 0.00 | 78 | 1003.8 |
| 20260505095204 | 71 | 132 | 2.6 | 7.8 | 0.00 | 0.00 | 0.00 | 78 | 1003.9 |
| 20260505094703 | 71 | 134 | 1.7 | 7.8 | 0.00 | 0.00 | 0.00 | 78 | 1004.0 |
| 20260505094204 | 71 | 151 | 4.3 | 12.2 | 0.00 | 0.00 | 0.00 | 78 | 1003.9 |
| 20260505093704 | 71 | 153 | 2.6 | 5.2 | 0.00 | 0.00 | 0.00 | 78 | 1004.0 |
| 20260505093204 | 71 | 139 | 2.6 | 10.4 | 0.00 | 0.00 | 0.00 | 78 | 1004.0 |
| 20260505092704 | 71 | 138 | 1.7 | 7.0 | 0.00 | 0.00 | 0.00 | 78 | 1004.1 |
| 20260505092204 | 71 | 153 | 1.7 | 6.1 | 0.00 | 0.00 | 0.00 | 78 | 1004.1 |
| 20260505091704 | 71 | 180 | 1.7 | 7.8 | 0.00 | 0.00 | 0.00 | 79 | 1004.1 |
| 20260505091204 | 71 | 130 | 0.9 | 6.1 | 0.00 | 0.00 | 0.00 | 79 | 1004.2 |
| 20260505090704 | 71 | 131 | 1.7 | 4.3 | 0.00 | 0.00 | 0.00 | 79 | 1004.3 |
| 20260505090204 | 71 | 147 | 2.6 | 7.0 | 0.00 | 0.00 | 0.00 | 79 | 1004.2 |
| 20260505085704 | 71 | 153 | 2.6 | 7.0 | 0.00 | 0.00 | 0.00 | 79 | 1004.2 |
| 20260505085204 | 71 | 167 | 1.7 | 7.8 | 0.00 | 0.00 | 0.00 | 79 | 1004.2 |
| 20260505084703 | 71 | 146 | 1.7 | 5.2 | 0.00 | 0.00 | 0.00 | 79 | 1004.2 |
| 20260505083704 | 71 | 93 | 1.7 | 7.0 | 0.00 | 0.00 | 0.00 | 79 | 1004.2 |
| 20260505083204 | 71 | 133 | 1.7 | 8.7 | 0.00 | 0.00 | 0.00 | 79 | 1004.2 |
| 20260505082703 | 71 | 109 | 3.5 | 10.4 | 0.00 | 0.00 | 0.00 | 79 | 1004.2 |
| 20260505082203 | 71 | 124 | 1.7 | 6.1 | 0.00 | 0.00 | 0.00 | 79 | 1004.2 |
| 20260505081704 | 71 | 144 | 1.7 | 6.1 | 0.00 | 0.00 | 0.00 | 79 | 1004.3 |
| 20260505081204 | 71 | 122 | 2.6 | 6.1 | 0.00 | 0.00 | 0.00 | 79 | 1004.3 |
| 20260505080703 | 71 | 119 | 1.7 | 7.8 | 0.00 | 0.00 | 0.00 | 79 | 1004.3 |
| 20260505075205 | 71 | 118 | 1.7 | 4.3 | 0.00 | 0.00 | 0.00 | 78 | 1004.5 |
| 20260505074705 | 71 | 123 | 1.7 | 5.2 | 0.00 | 0.00 | 0.00 | 78 | 1004.6 |
| 20260505074205 | 71 | 184 | 1.7 | 10.4 | 0.00 | 0.00 | 0.00 | 78 | 1004.7 |
| 20260505073704 | 71 | 156 | 1.7 | 6.1 | 0.00 | 0.00 | 0.00 | 78 | 1004.8 |
| 20260505073205 | 71 | 143 | 1.7 | 4.3 | 0.00 | 0.00 | 0.00 | 78 | 1004.9 |
| 20260505072704 | 71 | 128 | 1.7 | 6.1 | 0.00 | 0.00 | 0.00 | 78 | 1004.9 |
| 20260505072205 | 71 | 183 | 1.7 | 5.2 | 0.00 | 0.00 | 0.00 | 78 | 1005.1 |
| 20260505071204 | 72 | 140 | 1.7 | 7.0 | 0.00 | 0.00 | 0.00 | 78 | 1005.2 |
| 20260505070704 | 72 | 125 | 1.7 | 7.8 | 0.00 | 0.00 | 0.00 | 78 | 1005.2 |
| 20260505070205 | 72 | 71 | 2.6 | 6.1 | 0.00 | 0.00 | 0.00 | 77 | 1005.3 |
| 20260505065705 | 72 | 111 | 1.7 | 7.8 | 0.00 | 0.00 | 0.00 | 77 | 1005.3 |
| 20260505065204 | 72 | 99 | 0.9 | 5.2 | 0.00 | 0.00 | 0.00 | 77 | 1005.3 |
| 20260505064705 | 72 | 149 | 2.6 | 4.3 | 0.00 | 0.00 | 0.00 | 77 | 1005.4 |
| 20260505064204 | 72 | 124 | 2.6 | 6.1 | 0.00 | 0.00 | 0.00 | 77 | 1005.4 |
| 20260505063704 | 72 | 153 | 1.7 | 7.8 | 0.00 | 0.00 | 0.00 | 77 | 1005.5 |
| 20260505062705 | 72 | 148 | 3.5 | 10.4 | 0.00 | 0.00 | 0.00 | 76 | 1005.5 |
| 20260505062205 | 72 | 156 | 2.6 | 10.4 | 0.00 | 0.00 | 0.00 | 76 | 1005.5 |
| 20260505061204 | 73 | 121 | 2.6 | 6.1 | 0.00 | 0.00 | 0.00 | 76 | 1005.5 |
| 20260505060704 | 73 | 135 | 2.6 | 5.2 | 0.00 | 0.00 | 0.00 | 76 | 1005.5 |
| 20260505060205 | 73 | 128 | 4.3 | 7.0 | 0.00 | 0.00 | 0.00 | 76 | 1005.5 |
| 20260505055705 | 73 | 109 | 2.6 | 5.2 | 0.00 | 0.00 | 0.00 | 76 | 1005.6 |
| 20260505055204 | 73 | 99 | 2.6 | 10.4 | 0.00 | 0.00 | 0.00 | 75 | 1005.6 |
| 20260505054704 | 73 | 145 | 1.7 | 5.2 | 0.00 | 0.00 | 0.00 | 75 | 1005.6 |
| 20260505054204 | 73 | 122 | 2.6 | 7.0 | 0.00 | 0.00 | 0.00 | 75 | 1005.7 |
| 20260505053704 | 73 | 103 | 0.9 | 6.1 | 0.00 | 0.00 | 0.00 | 75 | 1005.8 |
| 20260505053204 | 73 | 115 | 2.6 | 6.1 | 0.00 | 0.00 | 0.00 | 75 | 1005.8 |
| 20260505052704 | 73 | 129 | 2.6 | 6.1 | 0.00 | 0.00 | 0.00 | 75 | 1005.8 |
| 20260505051704 | 73 | 128 | 2.6 | 8.7 | 0.00 | 0.00 | 0.00 | 74 | 1005.9 |
| 20260505051205 | 73 | 102 | 1.7 | 4.3 | 0.00 | 0.00 | 0.00 | 74 | 1005.9 |
| 20260505050705 | 73 | 75 | 1.7 | 8.7 | 0.00 | 0.00 | 0.00 | 74 | 1006.0 |
| 20260505050204 | 74 | 102 | 2.6 | 7.8 | 0.00 | 0.00 | 0.00 | 74 | 1005.9 |
| 20260505041704 | 74 | 116 | 0.9 | 7.8 | 0.00 | 0.00 | 0.00 | 72 | 1006.2 |
| 20260505041204 | 74 | 122 | 1.7 | 7.0 | 0.00 | 0.00 | 0.00 | 72 | 1006.3 |
| 20260505040704 | 74 | 80 | 1.7 | 6.1 | 0.00 | 0.00 | 0.00 | 72 | 1006.2 |
| 20260505035704 | 74 | 140 | 0.9 | 5.2 | 0.00 | 0.00 | 0.00 | 72 | 1006.3 |
| 20260505035204 | 74 | 138 | 1.7 | 7.8 | 0.00 | 0.00 | 0.00 | 72 | 1006.1 |
| 20260505034703 | 74 | 95 | 1.7 | 6.1 | 0.00 | 0.00 | 0.00 | 72 | 1006.2 |
| 20260505034204 | 74 | 106 | 1.7 | 6.1 | 0.00 | 0.00 | 0.00 | 72 | 1006.1 |
| 20260505033704 | 74 | 134 | 1.7 | 7.0 | 0.00 | 0.00 | 0.00 | 71 | 1006.1 |
| 20260505033204 | 74 | 132 | 2.6 | 6.1 | 0.00 | 0.00 | 0.00 | 71 | 1006.0 |
| 20260505032703 | 75 | 107 | 3.5 | 10.4 | 0.00 | 0.00 | 0.00 | 71 | 1006.2 |
| 20260505032204 | 75 | 118 | 2.6 | 7.0 | 0.00 | 0.00 | 0.00 | 71 | 1006.2 |
| 20260505031704 | 75 | 131 | 2.6 | 10.4 | 0.00 | 0.00 | 0.00 | 71 | 1006.2 |
| 20260505031204 | 75 | 118 | 1.7 | 8.7 | 0.00 | 0.00 | 0.00 | 70 | 1006.3 |
| 20260505030703 | 75 | 125 | 2.6 | 8.7 | 0.00 | 0.00 | 0.00 | 70 | 1006.3 |
| 20260505025704 | 75 | 134 | 1.7 | 7.8 | 0.00 | 0.00 | 0.00 | 70 | 1006.3 |
| 20260505025204 | 75 | 135 | 1.7 | 7.0 | 0.00 | 0.00 | 0.00 | 70 | 1006.3 |
| 20260505024704 | 75 | 107 | 2.6 | 10.4 | 0.00 | 0.00 | 0.00 | 70 | 1006.3 |
| 20260505024204 | 75 | 130 | 3.5 | 10.4 | 0.00 | 0.00 | 0.00 | 70 | 1006.4 |
| 20260505023703 | 75 | 116 | 1.7 | 7.8 | 0.00 | 0.00 | 0.00 | 70 | 1006.3 |
| 20260505023204 | 75 | 111 | 2.6 | 7.0 | 0.00 | 0.00 | 0.00 | 70 | 1006.1 |
| 20260505022704 | 75 | 127 | 1.7 | 7.8 | 0.00 | 0.00 | 0.00 | 69 | 1006.1 |
| 20260505022204 | 75 | 106 | 1.7 | 7.0 | 0.00 | 0.00 | 0.00 | 69 | 1006.1 |
| 20260505021204 | 75 | 160 | 1.7 | 5.2 | 0.00 | 0.00 | 0.00 | 69 | 1006.1 |
| 20260505020704 | 76 | 146 | 2.6 | 5.2 | 0.00 | 0.00 | 0.00 | 69 | 1006.1 |
| 20260505020204 | 76 | 126 | 1.7 | 7.8 | 0.00 | 0.00 | 0.00 | 69 | 1006.1 |
| 20260505015704 | 76 | 147 | 1.7 | 5.2 | 0.00 | 0.00 | 0.00 | 69 | 1006.1 |
| 20260505015204 | 76 | 97 | 1.7 | 6.1 | 0.00 | 0.00 | 0.00 | 69 | 1006.2 |
| 20260505014704 | 76 | 136 | 2.6 | 5.2 | 0.00 | 0.00 | 0.00 | 68 | 1006.1 |
| 20260505014204 | 76 | 92 | 1.7 | 10.4 | 0.00 | 0.00 | 0.00 | 68 | 1006.1 |
| 20260505013704 | 76 | 115 | 3.5 | 7.8 | 0.00 | 0.00 | 0.00 | 68 | 1006.1 |
| 20260505013203 | 76 | 147 | 1.7 | 6.1 | 0.00 | 0.00 | 0.00 | 68 | 1006.0 |
| 20260505012703 | 76 | 155 | 2.6 | 8.7 | 0.00 | 0.00 | 0.00 | 68 | 1006.1 |
| 20260505012203 | 76 | 140 | 4.3 | 6.1 | 0.00 | 0.00 | 0.00 | 67 | 1006.0 |
| 20260505011703 | 77 | 110 | 2.6 | 7.8 | 0.00 | 0.00 | 0.00 | 67 | 1006.0 |
| 20260505011206 | 77 | 130 | 2.6 | 7.0 | 0.00 | 0.00 | 0.00 | 67 | 1006.0 |
| 20260505010704 | 77 | 135 | 3.5 | 8.7 | 0.00 | 0.00 | 0.00 | 67 | 1006.0 |
| 20260505010205 | 77 | 123 | 2.6 | 7.0 | 0.00 | 0.00 | 0.00 | 67 | 1006.0 |
| 20260505005704 | 77 | 145 | 2.6 | 11.3 | 0.00 | 0.00 | 0.00 | 67 | 1005.8 |
| 20260505005203 | 77 | 133 | 2.6 | 6.1 | 0.00 | 0.00 | 0.00 | 66 | 1005.9 |
| 20260505004704 | 77 | 150 | 2.6 | 6.1 | 0.00 | 0.00 | 0.00 | 66 | 1006.0 |
| 20260505004204 | 78 | 122 | 3.5 | 10.4 | 0.00 | 0.00 | 0.00 | 66 | 1006.0 |
| 20260505003704 | 78 | 146 | 3.5 | 10.4 | 0.00 | 0.00 | 0.00 | 65 | 1006.2 |
| 20260505003204 | 78 | 104 | 1.7 | 7.0 | 0.00 | 0.00 | 0.00 | 65 | 1006.2 |
| 20260505002704 | 78 | 118 | 1.7 | 6.1 | 0.00 | 0.00 | 0.00 | 64 | 1006.1 |